�������l�o���
Date,Time,MP-1(��Sv/h),MP-2(��Sv/h),MP-3(��Sv/h),MP-4(��Sv/h),MP-5(��Sv/h),MP-6(��Sv/h),MP-7(��Sv/h),MP-8(��Sv/h),����,����(m/s),���J
2016/12/17,00:00,1.067,1.808,1.181,2.049,1.397,0.561,1.030,0.957,���k��,5.2,��
2016/12/17,00:10,1.068,1.807,1.180,2.053,1.397,0.561,1.030,0.958,���k��,4.3,��
2016/12/17,00:20,1.068,1.807,1.178,2.050,1.397,0.560,1.031,0.955,���k��,3.6,��
2016/12/17,00:30,1.067,1.804,1.176,2.049,1.395,0.562,1.030,0.954,��,3.5,��
2016/12/17,00:40,1.068,1.806,1.174,2.050,1.398,0.562,1.029,0.957,��,5.6,��
2016/12/17,00:50,1.068,1.807,1.176,2.052,1.399,0.561,1.030,0.955,��,5.2,��
2016/12/17,01:00,1.066,1.805,1.178,2.052,1.400,0.563,1.028,0.956,��,4.2,��
2016/12/17,01:10,1.067,1.807,1.176,2.052,1.398,0.562,1.028,0.956,��,4.7,��
2016/12/17,01:20,1.071,1.810,1.176,2.049,1.396,0.561,1.029,0.955,���쐼,4.0,��
2016/12/17,01:30,1.068,1.804,1.178,2.049,1.397,0.562,1.031,0.956,�쐼,2.5,��
2016/12/17,01:40,1.069,1.805,1.176,2.051,1.397,0.561,1.030,0.957,��쐼,3.4,��
2016/12/17,01:50,1.068,1.807,1.176,2.051,1.395,0.562,1.030,0.957,�쐼,1.9,��
2016/12/17,02:00,1.068,1.807,1.176,2.048,1.396,0.562,1.030,0.958,��쐼,2.9,��
2016/12/17,02:10,1.070,1.805,1.177,2.049,1.400,0.562,1.029,0.958,��쐼,3.3,��
2016/12/17,02:20,1.067,1.806,1.178,2.050,1.396,0.560,1.030,0.955,��,1.7,��
2016/12/17,02:30,1.068,1.806,1.174,2.050,1.395,0.562,1.030,0.956,��,1.7,��
2016/12/17,02:40,1.068,1.807,1.179,2.052,1.397,0.561,1.031,0.955,���쐼,1.5,��
2016/12/17,02:50,1.069,1.806,1.177,2.049,1.397,0.560,1.031,0.958,-,CALM,��
2016/12/17,03:00,1.068,1.806,1.175,2.049,1.397,0.562,1.030,0.956,��,0.9,��
2016/12/17,03:10,1.069,1.806,1.178,2.051,1.397,0.561,1.028,0.957,��,1.7,��
2016/12/17,03:20,1.069,1.805,1.177,2.049,1.394,0.559,1.030,0.956,��쓌,3.2,��
2016/12/17,03:30,1.067,1.805,1.175,2.050,1.397,0.561,1.029,0.957,��쓌,5.4,��
2016/12/17,03:40,1.069,1.807,1.176,2.050,1.395,0.561,1.031,0.956,��쓌,4.9,��
2016/12/17,03:50,1.066,1.803,1.175,2.051,1.396,0.561,1.030,0.956,��,4.6,��
2016/12/17,04:00,1.069,1.805,1.176,2.052,1.394,0.562,1.029,0.957,��,4.9,��
2016/12/17,04:10,1.066,1.806,1.177,2.049,1.393,0.561,1.030,0.956,��,4.4,��
2016/12/17,04:20,1.068,1.806,1.178,2.049,1.396,0.561,1.029,0.955,��,4.8,��
2016/12/17,04:30,1.068,1.806,1.174,2.049,1.394,0.561,1.030,0.956,��,5.3,��
2016/12/17,04:40,1.067,1.806,1.175,2.047,1.396,0.561,1.028,0.954,��,4.2,��
2016/12/17,04:50,1.069,1.805,1.176,2.049,1.395,0.560,1.033,0.956,��쐼,4.5,��
2016/12/17,05:00,1.066,1.805,1.173,2.051,1.395,0.559,1.029,0.956,��,5.1,��
2016/12/17,05:10,1.067,1.806,1.174,2.049,1.395,0.561,1.030,0.957,��,3.3,��
2016/12/17,05:20,1.066,1.803,1.176,2.050,1.393,0.559,1.030,0.957,��쐼,2.8,��
2016/12/17,05:30,1.066,1.803,1.173,2.049,1.394,0.562,1.030,0.956,��,3.2,��
2016/12/17,05:40,1.068,1.802,1.175,2.049,1.395,0.559,1.030,0.956,��,3.0,��
2016/12/17,05:50,1.068,1.807,1.174,2.049,1.393,0.559,1.031,0.955,��쓌,4.0,��
2016/12/17,06:00,1.067,1.804,1.175,2.052,1.392,0.561,1.029,0.958,��쓌,4.3,��
2016/12/17,06:10,1.066,1.805,1.170,2.050,1.392,0.561,1.028,0.956,��,4.0,��
2016/12/17,06:20,1.069,1.803,1.172,2.051,1.389,0.561,1.029,0.956,��쓌,3.3,��
2016/12/17,06:30,1.066,1.802,1.173,2.051,1.393,0.560,1.032,0.958,��,1.9,��
2016/12/17,06:40,1.065,1.804,1.173,2.047,1.390,0.560,1.028,0.957,��,1.7,��
2016/12/17,06:50,1.067,1.804,1.171,2.051,1.392,0.561,1.028,0.955,��쐼,3.1,��
2016/12/17,07:00,1.063,1.804,1.174,2.051,1.391,0.560,1.032,0.954,��,3.7,��
2016/12/17,07:10,1.067,1.803,1.173,2.051,1.392,0.561,1.029,0.957,��,3.6,��
2016/12/17,07:20,1.066,1.803,1.174,2.052,1.393,0.562,1.031,0.958,��쐼,4.2,��
2016/12/17,07:30,1.068,1.801,1.174,2.052,1.394,0.561,1.030,0.958,��쐼,3.8,��
2016/12/17,07:40,1.066,1.804,1.170,2.049,1.393,0.559,1.030,0.956,��쐼,3.3,��
2016/12/17,07:50,1.068,1.802,1.177,2.049,1.394,0.560,1.031,0.956,�쐼,4.1,��
2016/12/17,08:00,1.067,1.804,1.175,2.050,1.392,0.561,1.030,0.957,���쐼,4.3,��
2016/12/17,08:10,1.068,1.802,1.174,2.051,1.394,0.562,1.032,0.955,���쐼,4.2,��
2016/12/17,08:20,1.070,1.802,1.174,2.051,1.395,0.562,1.030,0.957,��쐼,2.3,��
2016/12/17,08:30,1.069,1.807,1.173,2.054,1.395,0.562,1.031,0.957,��쐼,2.3,��
2016/12/17,08:40,1.072,1.807,1.177,2.054,1.396,0.560,1.032,0.958,��쐼,1.9,��
2016/12/17,08:50,1.070,1.805,1.173,2.052,1.397,0.559,1.032,0.958,���쐼,1.9,��
2016/12/17,09:00,1.071,1.805,1.176,2.052,1.397,0.562,1.032,0.957,��,3.1,��
2016/12/17,09:10,1.070,1.806,1.176,2.051,1.398,0.561,1.032,0.957,��,3.8,��
2016/12/17,09:20,1.071,1.806,1.177,2.056,1.401,0.562,1.034,0.957,��,3.9,��
2016/12/17,09:30,1.074,1.806,1.178,2.054,1.399,0.562,1.035,0.957,��,4.2,��
2016/12/17,09:40,1.071,1.807,1.176,2.055,1.401,0.562,1.034,0.958,���k��,4.2,��
2016/12/17,09:50,1.072,1.808,1.179,2.058,1.401,0.561,1.033,0.959,���k��,3.8,��
2016/12/17,10:00,1.071,1.810,1.177,2.056,1.403,0.562,1.032,0.958,���쐼,4.6,��
2016/12/17,10:10,1.074,1.813,1.181,2.057,1.402,0.562,1.030,0.958,���쐼,5.5,��
2016/12/17,10:20,1.077,1.806,1.181,2.057,1.401,0.563,1.033,0.957,��,4.0,��
2016/12/17,10:30,1.077,1.811,1.181,2.059,1.403,0.562,1.031,0.959,���쐼,4.4,��
2016/12/17,10:40,1.074,1.810,1.184,2.056,1.404,0.562,1.029,0.959,��,6.3,��
2016/12/17,10:50,1.075,1.813,1.183,2.057,1.405,0.561,1.032,0.958,��,7.1,��
2016/12/17,11:00,1.078,1.812,1.183,2.058,1.406,0.563,1.031,0.958,��,6.7,��
2016/12/17,11:10,1.077,1.811,1.184,2.060,1.405,0.563,1.031,0.959,���k��,5.9,��
2016/12/17,11:20,1.076,1.812,1.184,2.060,1.407,0.565,1.032,0.958,���k��,6.4,��
2016/12/17,11:30,1.077,1.810,1.184,2.058,1.408,0.564,1.031,0.959,�k��,3.7,��
2016/12/17,11:40,1.078,1.809,1.180,2.061,1.409,0.563,1.030,0.958,���k��,4.4,��
2016/12/17,11:50,1.077,1.809,1.183,2.057,1.407,0.564,1.031,0.960,�k�k��,2.9,��
2016/12/17,12:00,1.079,1.812,1.184,2.058,1.408,0.564,1.032,0.960,�k�k��,1.5,��
2016/12/17,12:10,1.077,1.817,1.183,2.056,1.411,0.564,1.031,0.961,�k,2.6,��
2016/12/17,12:20,1.079,1.814,1.182,2.060,1.407,0.564,1.034,0.961,�k,3.0,��
2016/12/17,12:30,1.079,1.816,1.183,2.060,1.411,0.564,1.033,0.959,�k�k��,3.4,��
2016/12/17,12:40,1.080,1.818,1.185,2.062,1.409,0.565,1.032,0.959,�k,3.6,��
2016/12/17,12:50,1.079,1.812,1.181,2.061,1.410,0.565,1.033,0.962,�k,5.0,��
2016/12/17,13:00,1.079,1.811,1.185,2.062,1.410,0.565,1.032,0.960,�k,5.4,��
2016/12/17,13:10,1.078,1.812,1.185,2.060,1.408,0.566,1.033,0.959,�k�k��,5.7,��
2016/12/17,13:20,1.078,1.812,1.185,2.062,1.407,0.563,1.035,0.957,�k��,4.6,��
2016/12/17,13:30,1.080,1.808,1.186,2.059,1.409,0.565,1.032,0.956,�k��,4.7,��
2016/12/17,13:40,1.080,1.811,1.183,2.059,1.408,0.566,1.035,0.957,�k��,3.5,��
2016/12/17,13:50,1.081,1.812,1.186,2.062,1.411,0.566,1.032,0.957,���k��,2.9,��
2016/12/17,14:00,1.080,1.812,1.188,2.062,1.408,0.565,1.033,0.955,��,5.5,��
2016/12/17,14:10,1.079,1.814,1.187,2.058,1.411,0.567,1.034,0.958,��,4.8,��
2016/12/17,14:20,1.081,1.806,1.182,2.061,1.410,0.565,1.032,0.958,��,4.8,��
2016/12/17,14:30,1.080,1.815,1.190,2.061,1.410,0.566,1.034,0.962,���k��,6.6,��
2016/12/17,14:40,1.080,1.818,1.176,2.065,1.409,0.564,1.034,0.961,���k��,4.9,��
2016/12/17,14:50,1.080,1.815,1.179,2.062,1.409,0.565,1.036,0.960,���k��,6.0,��
2016/12/17,15:00,1.081,1.820,1.183,2.060,1.410,0.565,1.035,0.959,��,6.1,��
2016/12/17,15:10,1.079,1.816,1.186,2.059,1.408,0.565,1.034,0.960,���k��,7.4,��
2016/12/17,15:20,1.080,1.816,1.185,2.061,1.408,0.565,1.035,0.959,��,7.5,��
2016/12/17,15:30,1.078,1.816,1.184,2.062,1.409,0.565,1.034,0.961,���k��,7.1,��
2016/12/17,15:40,1.081,1.817,1.184,2.061,1.410,0.565,1.035,0.961,���k��,7.0,��
2016/12/17,15:50,1.080,1.819,1.186,2.061,1.410,0.565,1.035,0.959,���k��,6.6,��
2016/12/17,16:00,1.078,1.818,1.184,2.060,1.409,0.565,1.033,0.958,���k��,4.9,��
2016/12/17,16:10,1.079,1.817,1.186,2.061,1.410,0.565,1.034,0.960,���k��,6.2,��
2016/12/17,16:20,1.077,1.816,1.184,2.060,1.410,0.564,1.035,0.958,���k��,4.4,��
2016/12/17,16:30,1.075,1.814,1.186,2.059,1.409,0.564,1.034,0.959,���k��,4.3,��
2016/12/17,16:40,1.075,1.817,1.186,2.061,1.410,0.565,1.034,0.959,�k�k��,3.2,��
2016/12/17,16:50,1.075,1.817,1.186,2.062,1.411,0.565,1.034,0.959,�k�k��,3.8,��
2016/12/17,17:00,1.076,1.815,1.183,2.058,1.412,0.563,1.034,0.959,�k�k��,3.8,��
2016/12/17,17:10,1.077,1.817,1.184,2.059,1.410,0.565,1.032,0.958,�k�k��,4.8,��
2016/12/17,17:20,1.074,1.815,1.184,2.060,1.410,0.564,1.035,0.959,�k�k��,3.3,��
2016/12/17,17:30,1.074,1.817,1.183,2.061,1.412,0.563,1.031,0.958,�k��,5.3,��
2016/12/17,17:40,1.075,1.815,1.184,2.059,1.411,0.563,1.032,0.960,�k��,4.2,��
2016/12/17,17:50,1.076,1.817,1.186,2.059,1.410,0.564,1.033,0.959,�k��,4.9,��
2016/12/17,18:00,1.074,1.816,1.181,2.059,1.410,0.564,1.034,0.959,�k��,4.9,��
2016/12/17,18:10,1.073,1.817,1.183,2.057,1.409,0.563,1.034,0.960,�k��,4.4,��
2016/12/17,18:20,1.076,1.817,1.183,2.062,1.412,0.564,1.031,0.959,�k��,4.7,��
2016/12/17,18:30,1.075,1.816,1.183,2.057,1.408,0.562,1.033,0.956,�k��,3.9,��
2016/12/17,18:40,1.075,1.814,1.183,2.055,1.409,0.563,1.033,0.957,�k��,2.6,��
2016/12/17,18:50,1.075,1.815,1.181,2.059,1.409,0.565,1.032,0.959,�k�k��,2.2,��
2016/12/17,19:00,1.077,1.814,1.183,2.058,1.410,0.565,1.032,0.959,�k�k��,2.3,��
2016/12/17,19:10,1.076,1.814,1.182,2.055,1.408,0.563,1.033,0.957,�k�k��,3.0,��
2016/12/17,19:20,1.075,1.816,1.183,2.058,1.409,0.564,1.033,0.957,�k�k��,2.0,��
2016/12/17,19:30,1.074,1.814,1.184,2.058,1.411,0.562,1.034,0.959,�k,3.6,��
2016/12/17,19:40,1.077,1.816,1.183,2.057,1.410,0.565,1.033,0.959,�k,4.2,��
2016/12/17,19:50,1.074,1.814,1.184,2.058,1.410,0.563,1.031,0.958,�k,3.6,��
2016/12/17,20:00,1.074,1.814,1.182,2.059,1.410,0.563,1.032,0.957,�k,3.2,��
2016/12/17,20:10,1.074,1.812,1.183,2.056,1.407,0.563,1.031,0.957,�k,2.6,��
2016/12/17,20:20,1.074,1.813,1.184,2.058,1.407,0.563,1.030,0.957,�k�k��,2.6,��
2016/12/17,20:30,1.076,1.808,1.182,2.060,1.407,0.563,1.031,0.957,�k��,2.5,��
2016/12/17,20:40,1.074,1.813,1.183,2.057,1.408,0.563,1.032,0.957,�k,2.2,��
2016/12/17,20:50,1.074,1.815,1.181,2.054,1.409,0.564,1.031,0.958,�k��,0.9,��
2016/12/17,21:00,1.074,1.814,1.182,2.055,1.408,0.563,1.033,0.956,�k�k��,0.9,��
2016/12/17,21:10,1.074,1.814,1.180,2.057,1.407,0.561,1.030,0.957,�k��,2.0,��
2016/12/17,21:20,1.073,1.814,1.180,2.060,1.406,0.563,1.031,0.957,�k��,4.2,��
2016/12/17,21:30,1.073,1.814,1.183,2.056,1.408,0.563,1.029,0.956,���k��,4.1,��
2016/12/17,21:40,1.072,1.815,1.182,2.056,1.405,0.562,1.031,0.959,���k��,4.6,��
2016/12/17,21:50,1.073,1.814,1.180,2.056,1.408,0.563,1.031,0.956,�k��,5.6,��
2016/12/17,22:00,1.070,1.814,1.181,2.055,1.406,0.562,1.030,0.954,�k��,4.6,��
2016/12/17,22:10,1.070,1.813,1.182,2.057,1.408,0.562,1.030,0.956,���k��,5.7,��
2016/12/17,22:20,1.073,1.810,1.181,2.054,1.407,0.563,1.030,0.957,���k��,4.1,��
2016/12/17,22:30,1.073,1.814,1.181,2.054,1.408,0.562,1.031,0.957,�k,2.0,��
2016/12/17,22:40,1.072,1.814,1.180,2.052,1.407,0.563,1.031,0.956,�k,2.0,��
2016/12/17,22:50,1.071,1.810,1.180,2.057,1.407,0.562,1.030,0.957,�k�k��,1.7,��
2016/12/17,23:00,1.072,1.811,1.180,2.056,1.408,0.563,1.027,0.955,�k�k��,1.5,��
2016/12/17,23:10,1.073,1.813,1.179,2.055,1.408,0.562,1.029,0.957,�k�k��,2.0,��
2016/12/17,23:20,1.073,1.810,1.179,2.056,1.405,0.562,1.030,0.956,�k��,2.0,��
2016/12/17,23:30,1.071,1.813,1.178,2.056,1.408,0.563,1.029,0.956,�k�k��,1.1,��
2016/12/17,23:40,1.071,1.810,1.180,2.055,1.404,0.561,1.030,0.955,���쐼,1.5,��
2016/12/17,23:50,1.071,1.811,1.178,2.055,1.406,0.561,1.032,0.958,�쐼,1.1,��
